Location: Holbach
(51.5399°N, 10.6036°E)
Time: 03:52:56
(UTC+00:00)

Cosmos 1898 Rocket - Pass Details

Date: 18 September 2020
Orbit: 753 x 784 km, 74.0° (Epoch: 22 October)

Event Time Altitude Azimuth Distance (km) Brightness Sun altitude
Rises 18:25:15 0° 205° (SSW) 3,195 6.8 -10.2°
Reaches altitude 10° 18:27:36 10° 206° (SSW) 2,274 6.1 -10.5°
Maximum altitude 18:32:45 83° 294° (WNW) 767 3.6 -11.3°
Drops below altitude 10° 18:37:59 10° 24° (NNE) 2,296 5.9 -12.1°
Sets 18:40:22 0° 25° (NNE) 3,229 6.7 -12.4°
